Regional Weather Roundup
Issued by NWS

Home | Current Version | Previous Version | Graphics & Text | Print | Product List | Glossary Off
Versions: 1 2 3 4 5 6 7 8 9 10 11 12 13 14 15 16 17 18 19 20 21 22 23 24 25 26 27 28 29 30 31 32 33 34 35 36 37 38 39 40 41 42 43 44 45 46 47 48 49 50

000
ASUS43 KMKX 031800
RWRWI

WISCONSIN REGIONAL WEATHER ROUNDUP
NATIONAL WEATHER SERVICE MILWAUKEE/SULLIVAN WI
100 PM CDT FRI JUL 03 2015

NOTE: "FAIR" INDICATES FEW OR NO CLOUDS BELOW 12,000 FEET WITH NO
SIGNIFICANT WEATHER AND/OR OBSTRUCTIONS TO VISIBILITY.

WIZ001-002-006>008-014>016-023>028-031900-
NORTHWEST WISCONSIN

CITY           SKY/WX    TMP DP  RH WIND       PRES   REMARKS
SUPERIOR ARPT  SUNNY     76  65  67 W5        29.87S
ASHLAND        SUNNY     75  63  66 SW9       29.87F
6HR MIN TEMP:  63; 6HR MAX TEMP:  75;

HAYWARD        PTSUNNY   74  56  53 SW12      29.92F
6HR MIN TEMP:  54; 6HR MAX TEMP:  74;

SIREN          PTSUNNY   76  56  49 W9        29.93S
CUMBERLAND     SUNNY     72  54  53 W9        29.95S
RICE LAKE      SUNNY     74  55  51 SW8       29.96S
CHETEK         SUNNY     74  56  53 CALM      29.95S
LADYSMITH      MOSUNNY   74  55  51 W7        29.97S
EAU CLAIRE     NOT AVBL
MENOMONIE      MOSUNNY   75  55  49 W8        29.96S
NEW RICHMOND   MOSUNNY   74  56  53 W9        29.96S
OSCEOLA        SUNNY     75  57  53 SW7       29.97S
$$

WIZ003>005-009-010-017-018-031900-
NORTH CENTRAL WISCONSIN

CITY           SKY/WX    TMP DP  RH WIND       PRES   REMARKS
MANITOWISH WTR PTSUNNY   69  56  61 SW10G17   29.93S
ARBOR VITAE    PTSUNNY   72  57  60 W10       29.93S
WOODRUFF       PTSUNNY   72  57  60 W10       29.93S
RHINELANDER    MOSUNNY   74  54  49 SW13G18   29.95S
6HR MIN TEMP:  56; 6HR MAX TEMP:  74;

EAGLE RIVER    PTSUNNY   70  54  56 W10       29.93S
LAND O LAKES   PTSUNNY   69  54  57 SW10      29.93S
PHILLIPS       MOSUNNY   71  55  56 SW9       29.94S
6HR MIN TEMP:  54; 6HR MAX TEMP:  71;

TOMAHAWK       MOSUNNY   72  54  52 SW8       29.95F
MEDFORD        PTSUNNY   71  56  59 SW8       29.96F
MERRILL        MOSUNNY   72  56  58 W8        29.96F
$$

WIZ029-030-035-036-043>047-031900-
CENTRAL WISCONSIN

CITY           SKY/WX    TMP DP  RH WIND       PRES   REMARKS
WAUSAU         MOSUNNY   73  56  54 W7        29.95F
6HR MIN TEMP:  53; 6HR MAX TEMP:  74;

MOSINEE        MOSUNNY   72  57  60 SW10      29.98F
MARSHFIELD     MOSUNNY   74  56  53 W8        29.97F
6HR MIN TEMP:  54; 6HR MAX TEMP:  74;

STEVENS POINT  MOSUNNY   70  51  52 SW8       29.98S
WAUPACA        SUNNY     75  51  42 W6        29.97F
WAUTOMA        NOT AVBL
WISC RAPIDS    MOSUNNY   73  51  46 CALM      29.98F
6HR MIN TEMP:  53; 6HR MAX TEMP:  74;

CAMP DOUGLAS   NOT AVBL
$$

WIZ011>013-019>022-031-037>040-048>050-031900-
NORTHEAST WISCONSIN

CITY           SKY/WX    TMP DP  RH WIND       PRES   REMARKS
ANTIGO         MOSUNNY   70  57  62 SW8       29.97S
SHAWANO        SUNNY     75  51  43 W7        29.96F
OCONTO         SUNNY     73  55  53 SW7       29.94F
STURGEON BAY   SUNNY     70  54  56 SW12      29.97F
6HR MIN TEMP:  57; 6HR MAX TEMP:  70;

GREEN BAY      SUNNY     74  56  53 SW10      29.96F
6HR MIN TEMP:  55; 6HR MAX TEMP:  74;

MANITOWOC      NOT AVBL
APPLETON       SUNNY     72  52  49 SW6       29.98F
CLINTONVILLE   SUNNY     73  50  43 W5        29.96F
OSHKOSH        SUNNY     73  53  49 SW5       29.97F
6HR MIN TEMP:  56; 6HR MAX TEMP:  73;

$$

WIZ032>034-041-042-053>061-031900-
SOUTHWEST WISCONSIN

CITY           SKY/WX    TMP DP  RH WIND       PRES   REMARKS
LA CROSSE      MOSUNNY   76  58  53 VRB5      29.96F
6HR MIN TEMP:  56; 6HR MAX TEMP:  76;

SPARTA         MOSUNNY   74  53  46 W5        29.98S
VIROQUA        MOSUNNY   72  53  50 CALM      30.00S
BOSCOBEL       SUNNY     75  54  47 VRB3      29.98F
6HR MIN TEMP:  55; 6HR MAX TEMP:  76;

PRAIRIE DU CHI SUNNY     71  51  48 CALM      29.99S
PLATTEVILLE    SUNNY     71  49  44 CALM      29.99F
$$

WIZ056-057-062-063-064-067-068-031900-
SOUTH CENTRAL WISCONSIN

CITY           SKY/WX    TMP DP  RH WIND       PRES   REMARKS
REEDSBURG      SUNNY     71  53  53 SW3       29.97F
BARABOO/DELLS  SUNNY     73  49  44 CALM      29.97F
LONE ROCK      NOT AVBL
MINERAL POINT  SUNNY     72  48  43 CALM      30.00S
MADISON        MOSUNNY   72  49  44 VRB7      29.97F
6HR MIN TEMP:  53; 6HR MAX TEMP:  72;

MIDDLETON      SUNNY     73  48  41 NW3       29.99F
WATERTOWN      SUNNY     72  55  54 CALM      29.98S
MONROE         MOSUNNY   72  55  56 CALM      29.99S
JANESVILLE     MOSUNNY   75  55  50 W3        29.98S
$$

WIZ051-052-058>065-066-070>072-031900-
SOUTHEAST WISCONSIN

CITY           SKY/WX    TMP DP  RH WIND       PRES   REMARKS
MILWAUKEE      PTSUNNY   73  52  47 SE8       29.98F
6HR MIN TEMP:  58; 6HR MAX TEMP:  73;

WAUKESHA       MOSUNNY   70  52  52 CALM      29.99F
MILWAUKEE/TIMM NOT AVBL
RACINE         MOSUNNY   69  56  62 E9        30.00S
6HR MIN TEMP:  57; 6HR MAX TEMP:  73;

BURLINGTON     PTSUNNY   73  55  51 CALM      29.98S
KENOSHA        MOSUNNY   73  54  51 VRB5      29.99S
6HR MIN TEMP:  56; 6HR MAX TEMP:  75;

FOND DU LAC    SUNNY     74  55  51 S10       29.97F
6HR MIN TEMP:  54; 6HR MAX TEMP:  74;

SHEBOYGAN      MOSUNNY   74  55  51 SW7       29.97F
6HR MIN TEMP:  53; 6HR MAX TEMP:  74;

WEST BEND      PTSUNNY   73  52  46 CALM      29.97F
JUNEAU         SUNNY     71  55  58 SW7       29.99F
$$

LSZ147-162-031900-
LAKE SUPERIOR

STATION/POSITION TIME  TEMP    WIND        PRES    WAVE
                       AIR SEA DIR/SP/G            HT/PER
                 (UTC) (F)     (DEG/KT/KT) (MB)    (FT/S)
W MID LAKE BUOY  1650   47 39  220/ 10/ 12 1010.4F   2/ 4
DEVILS ISLAND    1700   63     230/ 16/ 19 1010.8F
SAXON HARBOR     1740   73     210/  4/ 13 1011.2F
$$

LMZ867-665-643>646-031900-
LAKE MICHIGAN

STATION/POSITION TIME  TEMP    WIND        PRES    WAVE
                       AIR SEA DIR/SP/G            HT/PER
                 (UTC) (F)     (DEG/KT/KT) (MB)    (FT/S)
CHAMBERS ISLAND  1700   68     170/  6/ 10 1013.9F
N MID LAKE BUOY  1650   49 44  200/ 12/ 14 1014.4F   1/ 3
NORTHPORT PIER   1700   70     180/  5/ 10 1013.9F
SISTER BAY       1744   71     250/  9/ 11   N/A
ALGOMA LAKESHORE 1741          210/ 12/ 14   N/A
KEWAUNEE LAKESHO 1700   61     180/  9/ 11 1014.3F
SHEBOYGAN LAKESH 1700   59     140/ 12/ 12 1015.4F
PORT WASHINGTON  1740   63     160/  5/  7 1015.9F
ATWATER BUOY     1700   60 60  120/  4/  6 1017.0F
MILWAUKEE LAKESH 1700   62     100/  3/  4   N/A
KENOSHA   LAKESH 1700   60      60/  4/  5 1015.2F
$$

TC  - TEMPERATURE IN CELSIUS
VSB - VISIBILITY IN STATUTE MILES
WCI - WIND CHILL INDEX
HX  - HEAT INDEX



USA.gov is the U.S. government's official web portal to all federal, state and local government web resources and services.